Regional Weather Roundup
Issued by NWS

Home | Current Version | Previous Version | Text Only | Print | Product List | Glossary On
Versions: 1 2 3 4 5 6 7 8 9 10 11 12 13 14 15 16 17 18 19 20 21 22 23 24 25 26 27 28 29 30 31 32 33 34 35 36 37 38 39 40 41 42 43 44 45 46 47 48 49 50
000
ASUS43 KTOP 031608
RWRKS

WEATHER ROUNDUP FOR KANSAS
NATIONAL WEATHER SERVICE GOODLAND KS
1100 AM CDT FRI JUL 03 2015

NOTE:  "FAIR" INDICATES FEW OR NO CLOUDS BELOW 12,000 FEET WITH NO
SIGNIFICANT WEATHER AND/OR OBSTRUCTIONS TO VISIBILITY.

KSZ001>006-013>018-027>032-041>047-031700-
NORTHWEST KANSAS

CITY           SKY/WX    TMP DP  RH WIND       PRES   REMARKS
GOODLAND       MOSUNNY   78  56  46 CALM      30.11S
HAYS           PTSUNNY   73  59  60 N7        30.06S
HILL CITY      CLOUDY    71  62  73 NE8       30.09R
RUSSELL        PTSUNNY   75  64  68 N8        30.03S
$$

KSZ061>065-074>080-084>089-031700-
SOUTHWEST KANSAS

CITY           SKY/WX    TMP DP  RH WIND       PRES   REMARKS
DODGE CITY     SUNNY     80  60  50 NE10      30.05F
ELKHART          N/A     83  60  45 S3          N/A
GARDEN CITY    SUNNY     80  59  48 E6        30.06S
GREAT BEND     PTSUNNY   70  63  78 N14       30.06S
LIBERAL        MOSUNNY   81  64  57 E3        30.09S
PRATT          SUNNY     81  59  47 N16       30.03S
$$

KSZ066>073-081>083-090>101-031700-
SOUTHEAST KANSAS

CITY           SKY/WX    TMP DP  RH WIND       PRES   REMARKS
CHANUTE        MOSUNNY   78  70  76 CALM      29.93F
COFFEYVILLE    PTSUNNY   81  70  69 VRB5      29.92S
HUTCHINSON     CLOUDY    75  65  70 NW12      30.01S
MEDICINE LODGE   N/A     85  60  42 N16       29.98S
NEWTON         CLOUDY    72  63  73 N12       30.01S
PARSONS        PTSUNNY   80  73  79 NW7       29.94S
WICHITA INTL   PTSUNNY   75  65  70 N15       29.98R
WICHITA JABRA  CLOUDY    73  66  78 N13       29.98S
WICHITA MCCONL CLOUDY    73  65  76 N10       29.98S
WINFIELD       SUNNY     83  66  56 N12       29.97R
$$

KSZ007>012-019>026-033>040-048>060-102>105-031700-
NORTHEAST KANSAS

CITY           SKY/WX    TMP DP  RH WIND       PRES   REMARKS
CONCORDIA      CLOUDY    70  65  84 NE7       30.03R
EMPORIA        CLOUDY    73  66  78 N12       29.96R
LAWRENCE       PTSUNNY   74  65  73 E6        29.97R
MANHATTAN      CLOUDY    70  65  84 NE7       29.99S
MARYSVILLE     CLOUDY    72  64  78 N6        30.01R
OLATHE IND     LGT RAIN  69  65  86 NE5       29.98R
OLATHE EXE     CLOUDY    71  65  81 NE7       29.96S
SALINA         PTSUNNY   76  64  66 NE10      30.01R
TOPEKA BILLARD PTSUNNY   72  66  81 NE8       29.97S
TOPEKA FORBES  MOSUNNY   74  66  76 E9        29.97S
$$


USA.gov is the U.S. government's official web portal to all federal, state and local government web resources and services.